This demonstration page uses our WeatherBlox Daily Observations layout. Learn more.

Left ArrowRight Arrow

39.29038, -76.61219

Hourly Observations for June 18, 2020

Temp ( °F °C ) Dew Point ( °F °C ) Humidity (%) Winds ( mph kmh ) Pressure ( in mb ) Visibility ( mi km ) Precip ( " mm )
12:40 am 00:40 Cloudy 68 20 65 18.3 90 90 E 14 22 30.09 1019 7 11 0.00 0.00
12:54 am 00:54 Cloudy with Light Rain 68 20 65 18.3 90 90 E 12 19 30.09 1019 6 10 0.00 0.00
1:54 am 01:54 Cloudy with Drizzle 67 19.4 65 18.3 93 93 E 10 17 30.09 1019 6 10 0.00 0.00
2:33 am 02:33 Cloudy with Drizzle 67 19.4 65 18.3 93 93 E 12 19 30.09 1019 1 2 0.00 0.00
2:47 am 02:47 Cloudy with Drizzle 67 19.4 65 18.3 93 93 E 12 19 30.08 1019 1 1 0.00 0.00
2:54 am 02:54 Cloudy with Drizzle 67 19.4 65 18.3 93 93 E 13 20 30.08 1019 1 1 0.00 0.00
3:54 am 03:54 Cloudy with Drizzle 67 19.4 65 18.3 93 93 E 9 15 30.07 1018 1 1 0.01 0.25
4:54 am 04:54 Cloudy with Drizzle 67 19.4 65 18.3 93 93 E 12 19 30.07 1018 2 2 0.01 0.25
5:15 am 05:15 Cloudy with Mist and Fog 67 19.4 65 18.3 93 93 E 10 17 30.08 1019 3 4 0.00 0.00
5:54 am 05:54 Cloudy with Drizzle 67 19.4 65 18.3 93 93 E 8 13 30.09 1019 2 2 0.00 0.00
6:54 am 06:54 Cloudy with Drizzle 67 19.4 65 18.3 93 93 E 10 17 30.10 1019 2 2 0.01 0.25
7:35 am 07:35 Cloudy with Drizzle 67 19.4 65 18.3 93 93 E 12 19 30.12 1020 2 2 0.01 0.25
7:54 am 07:54 Cloudy with Drizzle 68 20 66 18.9 93 93 E 10 17 30.11 1020 2 3 0.01 0.25
8:50 am 08:50 Cloudy with Drizzle 68 20 66 19 94 94 E 10 17 30.13 1020 2 3 0.01 0.25
8:54 am 08:54 Cloudy with Drizzle 68 20 66 18.9 93 93 E 12 19 30.13 1020 2 3 0.01 0.25
9:04 am 09:04 Cloudy with Drizzle 68 20 66 18.9 93 93 E 10 17 30.13 1020 2 3 0.00 0.00
9:06 am 09:06 Cloudy with Drizzle 68 20 66 18.9 93 93 E 10 17 30.13 1020 2 3 0.00 0.00
9:34 am 09:34 Cloudy with Mist and Fog 69 20.6 66 18.9 90 90 E 9 15 30.13 1020 3 5 0.00 0.00
9:54 am 09:54 Cloudy with Mist and Fog 69 20.6 66 18.9 90 90 E 9 15 30.13 1020 4 6 0.00 0.00
10:25 am 10:25 Mostly Cloudy with Mist and Fog 70 21.1 67 19.4 90 90 E 9 15 30.13 1020 6 10 0.00 0.00
10:54 am 10:54 Cloudy 71 21.7 66 18.9 84 84 E 12 19 30.13 1020 8 13 0.00 0.00
11:44 am 11:44 Mostly Cloudy 74 23.3 67 19.4 79 79 E 6 9 30.12 1020 10 16 0.00 0.00
11:54 am 11:54 Mostly Cloudy 75 23.9 66 18.9 74 74 SE 7 11 30.13 1020 10 16 0.00 0.00
12:14 pm 12:14 Mostly Cloudy 76 24.4 66 18.9 72 72 SE 8 13 30.12 1020 10 16 0.00 0.00
12:54 pm 12:54 Mostly Cloudy 78 25.6 65 18.3 64 64 ESE 10 17 30.12 1020 10 16 0.00 0.00
1:54 pm 13:54 Mostly Cloudy 80 26.7 63 17.2 56 56 SE 9 15 30.11 1020 10 16 0.00 0.00
2:54 pm 14:54 Mostly Cloudy 81 27.2 63 17.2 54 54 ESE 8 13 30.10 1019 10 16 0.00 0.00
3:54 pm 15:54 Mostly Cloudy 82 27.8 62 16.7 51 51 S 8 13 30.07 1018 10 16 0.00 0.00
4:54 pm 16:54 Mostly Cloudy 82 27.8 61 16.1 49 49 SSE 5 7 30.06 1018 10 16 0.00 0.00
5:54 pm 17:54 Mostly Cloudy 82 27.8 57 13.9 42 42 ESE 10 17 30.05 1018 10 16 0.00 0.00
6:54 pm 18:54 Mostly Cloudy 80 26.7 58 14.4 47 47 SSE 9 15 30.06 1018 10 16 0.00 0.00
7:54 pm 19:54 Mostly Cloudy 77 25 58 14.4 52 52 SE 5 7 30.06 1018 10 16 0.00 0.00
8:54 pm 20:54 Mostly Cloudy 75 23.9 58 14.4 55 55 ESE 6 9 30.07 1018 10 16 0.00 0.00
9:54 pm 21:54 Partly Cloudy 73 22.8 59 15 62 62 S 3 6 30.09 1019 10 16 0.00 0.00
10:54 pm 22:54 Mostly Cloudy 72 22.2 61 16.1 68 68 ESE 6 9 30.09 1019 10 16 0.00 0.00
11:54 pm 23:54 Mostly Cloudy 72 22.2 63 17.2 73 73 SSE 3 6 30.10 1019 10 16 0.00 0.00

Powered by AerisWeather